Location: ?????????
(54.7630°N, 39.4991°E)
Time: 19:45:33
(UTC+00:00)

Cosmos 2360 Rocket - Pass Details

Date: 14 April 2026
Orbit: 831 x 845 km, 71.0° (Epoch: 16 May)

Event Time Altitude Azimuth Distance (km) Brightness Sun altitude
Rises 17:52:35 0° 241° (WSW) 3,381 5.7 -12.2°
Reaches altitude 10° 17:55:11 10° 249° (WSW) 2,452 5.0 -12.5°
Maximum altitude 18:00:26 39° 318° (NW) 1,245 3.8 -13.1°
Drops below altitude 10° 18:05:44 10° 27° (NNE) 2,472 4.8 -13.6°
Sets 18:08:22 0° 35° (NE) 3,412 5.4 -13.9°
